Onalaska, WI

7:58 AM CST on December 07, 2016 (GMT -0600)
La Crosse Municipal

Weather History for KLSE - December, 2013

Change the Weather History Date:

Tuesday, December 10, 2013

  Actual Average Record
Temperature  
Mean Temperature 7 °F 23 °F  
Max Temperature 14 °F 31 °F 56 °F (1979)
Min Temperature 0 °F 16 °F -18 °F (1919)
Degree Days  
Heating Degree Days 58 42  
Month to date heating degree days 461 399  
Since 1 July heating degree days 1865 1899  
Cooling Degree Days 0 0  
Month to date cooling degree days 0 0  
Year to date cooling degree days 917 782  
Moisture  
Dew Point 1 °F    
Average Humidity 69    
Maximum Humidity 83    
Minimum Humidity 55    
Precipitation  
Precipitation 0.02 in 0.05 in 1.02 in (1911)
Month to date precipitation 0.68 0.53  
Year to date precipitation 35.05 32.23  
Snow  
Snow 0.60 in 0.40 in 7.00 in (1970)
Month to date snowfall 2.7 3.8  
Since 1 July snowfall 3.7 8.1  
Snow Depth 2.00 in    
Sea Level Pressure  
Sea Level Pressure 30.02 in    
Wind  
Wind Speed 11 mph (SSW)    
Max Wind Speed 25 mph    
Max Gust Speed 32 mph    
Visibility 6 miles    
Events Snow    
T = Trace of Precipitation, MM = Missing Value Source: NWS Daily Summary

Daily Weather History Graph

Daily Weather History Graph

Search for Another Location

Airport or City:

Trip Planner

Search our weather history database for the weather conditions in past years. The results will help you decide how hot, cold, wet, or windy it might be!

Date:

Astronomy

Dec. 10, 2013 Rise Set
Actual Time 7:28 AM CST 4:27 PM CST
Civil Twilight 6:55 AM CST 5:00 PM CST
Nautical Twilight 6:19 AM CST 5:36 PM CST
Astronomical Twilight 5:44 AM CST 6:11 PM CST
Moon 12:39 PM CST (12/10) 12:35 AM CST (12/10)
Length of Visible Light 10h 04m
Length of Day
8h 58m
Waxing Gibbous, 62% of the Moon is Illuminated
Dec 10
Waxing Gibbous
Dec 17
Full
Dec 25
Last Quarter
Jan 1
New
Jan 7
First Quarter

Hourly Weather History & Observations

Time (CST) Temp. Windchill Dew Point Humidity Pressure Visibility Wind Dir Wind Speed Gust Speed Precip Events Conditions
12:53 AM -0.0 °F -16.3 °F -7.1 °F 72% 30.09 in 10.0 mi SSE 10.4 mph - N/A   Scattered Clouds
1:53 AM 1.9 °F -15.5 °F -5.1 °F 72% 30.02 in 10.0 mi South 12.7 mph - N/A   Overcast
2:51 AM 3.2 °F -12.2 °F -4.0 °F 72% 29.92 in 2.0 mi SSE 10.4 mph 20.7 mph 0.00 in Snow Light Snow
2:53 AM 3.0 °F -12.5 °F -4.0 °F 73% 30.00 in 2.0 mi SSE 10.4 mph - 0.00 in Snow Light Snow
3:51 AM 3.2 °F -13.9 °F -2.2 °F 78% 29.88 in 1.8 mi SSE 12.7 mph - 0.01 in Snow Light Snow
3:53 AM 3.9 °F -13.7 °F -2.0 °F 76% 29.96 in 1.8 mi SSE 13.8 mph - 0.01 in Snow Light Snow
4:26 AM 5.0 °F -12.3 °F -0.4 °F 78% 29.86 in 2.0 mi South 13.8 mph - 0.00 in Snow Light Snow
4:50 AM 5.0 °F -10.8 °F -0.4 °F 78% 29.85 in 3.0 mi SSE 11.5 mph - 0.00 in Snow Light Snow
4:53 AM 5.0 °F -11.6 °F -0.0 °F 80% 29.94 in 3.0 mi SSE 12.7 mph - 0.00 in Snow Light Snow
5:13 AM 6.8 °F -7.8 °F 1.4 °F 79% 29.85 in 1.8 mi SSE 10.4 mph - 0.00 in Snow Light Snow
5:29 AM 6.8 °F -9.3 °F 1.4 °F 79% 29.84 in 2.5 mi SSE 12.7 mph - 0.01 in Snow Light Snow
5:39 AM 6.8 °F -5.9 °F 1.4 °F 79% 29.85 in 4.0 mi SSE 8.1 mph - 0.01 in Snow Light Snow
5:53 AM 8.1 °F -4.3 °F 1.9 °F 76% 29.93 in 4.0 mi SSE 8.1 mph - 0.01 in Snow Light Snow
6:00 AM 8.6 °F -3.7 °F 3.2 °F 79% 29.84 in 2.5 mi SSE 8.1 mph - 0.00 in Snow Light Snow
6:15 AM 8.6 °F -3.7 °F 3.2 °F 79% 29.84 in 3.0 mi SE 8.1 mph - 0.00 in Snow Light Snow
6:45 AM 8.6 °F -2.6 °F 3.2 °F 79% 29.85 in 6.0 mi ESE 6.9 mph - 0.00 in Snow Light Snow
6:53 AM 9.0 °F 0.6 °F 3.9 °F 80% 29.92 in 5.0 mi SSE 4.6 mph - 0.00 in Snow Light Snow
7:09 AM 10.4 °F 2.2 °F 5.0 °F 79% 29.85 in 5.0 mi SSE 4.6 mph - 0.00 in Snow Light Snow
7:53 AM 10.9 °F -3.4 °F 6.1 °F 81% 29.95 in 4.0 mi SSW 11.5 mph - 0.00 in Snow Light Snow
8:03 AM 12.2 °F -1.8 °F 6.8 °F 79% 29.87 in 1.8 mi SW 11.5 mph - 0.00 in Snow Light Snow
8:13 AM 14.0 °F -4.7 °F 8.6 °F 79% 29.89 in 3.0 mi West 23.0 mph 29.9 mph 0.00 in Snow Light Snow
8:53 AM 12.0 °F -6.5 °F 3.9 °F 70% 30.00 in 10.0 mi West 20.7 mph 26.5 mph 0.00 in   Overcast
9:53 AM 12.0 °F -4.5 °F 3.0 °F 67% 30.05 in 10.0 mi West 16.1 mph - N/A   Overcast
10:26 AM 12.2 °F -4.3 °F 1.4 °F 62% 29.99 in 10.0 mi West 16.1 mph 23.0 mph N/A   Scattered Clouds
10:53 AM 12.0 °F -4.5 °F 1.0 °F 61% 30.09 in 10.0 mi West 16.1 mph - N/A   Scattered Clouds
11:00 AM 12.2 °F -0.2 °F 1.4 °F 62% 30.02 in 10.0 mi West 9.2 mph - N/A   Mostly Cloudy
11:25 AM 12.2 °F -4.3 °F 1.4 °F 62% 30.03 in 10.0 mi West 16.1 mph 24.2 mph N/A   Scattered Clouds
11:53 AM 12.0 °F -6.0 °F -0.0 °F 59% 30.11 in 10.0 mi West 19.6 mph 25.3 mph N/A   Partly Cloudy
12:53 PM 12.9 °F -3.9 °F -0.0 °F 56% 30.15 in 10.0 mi WNW 17.3 mph - N/A   Clear
1:53 PM 14.0 °F 0.5 °F -0.0 °F 54% 30.16 in 10.0 mi West 11.5 mph - 0.00 in   Clear
2:53 PM 12.9 °F -2.2 °F -0.9 °F 54% 30.17 in 10.0 mi West 13.8 mph - N/A   Clear
3:53 PM 10.9 °F -3.4 °F -2.0 °F 56% 30.19 in 10.0 mi WNW 11.5 mph - N/A   Clear
4:53 PM 8.1 °F -2.0 °F -2.9 °F 61% 30.21 in 10.0 mi West 5.8 mph - N/A   Clear
5:53 PM 10.0 °F -0.9 °F -0.9 °F 61% 30.23 in 10.0 mi SW 6.9 mph - N/A   Scattered Clouds
6:53 PM 10.9 °F 1.4 °F -0.0 °F 61% 30.24 in 10.0 mi SSW 5.8 mph - N/A   Overcast
7:53 PM 10.9 °F 2.9 °F 1.0 °F 64% 30.24 in 10.0 mi South 4.6 mph - N/A   Overcast
8:53 PM 12.0 °F 4.1 °F 3.0 °F 67% 30.26 in - SSW 4.6 mph - N/A   Overcast
9:53 PM 14.0 °F 6.5 °F 6.1 °F 71% 30.27 in 5.0 mi West 4.6 mph - 0.00 in Snow Light Snow
10:53 PM 12.9 °F 5.2 °F 8.1 °F 81% 30.28 in 7.0 mi South 4.6 mph - 0.00 in   Overcast
11:53 PM 14.0 °F 6.5 °F 9.0 °F 80% 30.29 in 4.0 mi South 4.6 mph - 0.00 in Snow Light Snow